FW9007 Weather Reports


Display with metric or nautical units.
time (UTC)temp
F
wind
direction
speed
MPH
gust
MPH
rain 1hr
in
rain 24hr
in
rain mn
in
humidity
%
barometer
mb
20260509074827 0 204 2.0 2.0 0.07 0.47 0.47 1007.2
20260509074324 0 174 3.0 3.0 0.07 0.47 0.47 1006.8
20260509073821 0 219 3.0 5.0 0.00 0.46 0.46 1007.2
20260509073317 0 181 2.0 2.0 0.00 0.46 0.46 1007.1
20260509072814 0 221 3.0 3.0 0.00 0.46 0.46 1007.1
20260509072310 0 174 3.0 6.0 0.05 0.46 0.46 1007.3
20260509071807 0 215 2.0 3.0 0.05 0.46 0.46 1007.5
20260509071304 0 233 3.0 5.0 0.00 0.45 0.45 1007.3
20260509070801 0 204 2.0 2.0 0.00 0.45 0.45 1007.7
20260509070258 0 182 0.0 1.0 0.00 0.45 0.45 1007.4
20260509065754 0 197 0.0 0.0 0.00 0.45 0.45 1007.3
20260509065250 0 177 0.0 0.0 0.00 0.45 0.45 1007.8
20260509064747 0 188 1.0 2.0 0.00 0.45 0.45 1007.7
20260509064244 0 197 0.0 1.0 0.00 0.45 0.45 1007.9
20260509063742 0 189 2.0 2.0 0.00 0.45 0.45 1007.8
20260509063238 0 173 3.0 3.0 0.00 0.45 0.45 1008.0
20260509062735 0 188 1.0 1.0 0.00 0.45 0.45 1008.1
20260509062232 0 198 0.0 1.0 0.00 0.45 0.45 1008.0
20260509061729 0 180 0.0 0.0 0.07 0.45 0.45 1007.9
20260509061227 0 182 0.0 0.0 0.19 0.45 0.45 1008.0
20260509060724 0 183 0.0 0.0 0.24 0.44 0.44 1008.0
20260509060220 0 183 1.0 1.0 0.12 0.41 0.41 1008.4
20260509055716 0 201 2.0 3.0 0.17 0.40 0.40 1008.3
20260509055212 0 213 1.0 1.0 0.19 0.39 0.39 1008.5
20260509054709 0 214 3.0 3.0 0.19 0.37 0.37 1008.8
20260509054206 0 186 1.0 2.0 0.24 0.36 0.36 1008.7
20260509053705 0 182 0.0 0.0 0.19 0.34 0.34 1009.1
20260509053201 0 191 1.0 1.0 0.17 0.33 0.33 1009.0
20260509052659 0 204 2.0 2.0 0.28 0.31 0.31 1009.0
20260509052156 0 194 2.0 2.0 0.38 0.30 0.30 1009.0
20260509051654 0 191 2.0 2.0 0.31 0.27 0.27 1009.0
20260509051151 0 213 1.0 2.0 0.28 0.24 0.24 1008.9
20260509050648 0 184 2.0 2.0 0.24 0.21 0.21 1008.9
20260509050144 0 140 2.0 2.0 0.31 0.19 0.19 1009.0
20260509045642 0 210 2.0 3.0 0.31 0.17 0.17 1008.9
20260509045139 0 193 3.0 3.0 0.24 0.14 0.14 1009.1
20260509044636 0 194 1.0 1.0 0.26 0.13 0.13 1009.0
20260509044133 0 191 1.0 1.0 0.19 0.10 0.10 1008.9
20260509043630 0 196 1.0 1.0 0.19 0.08 0.08 1008.8
20260509043125 0 177 0.0 0.0 0.19 0.06 0.06 1008.8
20260509042622 0 181 0.0 0.0 0.17 0.05 0.05 1008.7
20260509042118 0 201 2.0 2.0 0.05 0.03 0.03 1008.7
20260509041615 0 153 0.0 0.0 0.07 0.02 0.02 1008.5
20260509041113 0 185 0.0 0.0 0.12 0.02 0.02 1008.6
20260509040611 0 206 1.0 1.0 0.12 0.01 0.01 1008.8
20260509040108 0 183 1.0 2.0 0.38 0.00 0.00 1008.9
20260509035604 0 186 0.0 0.0 0.54 0.75 0.75 1008.8
20260509035100 0 196 1.0 1.0 0.61 0.71 0.71 1009.4
20260509034559 0 216 1.0 2.0 0.54 0.66 0.66 1009.1
20260509034055 0 193 1.0 1.0 0.47 0.61 0.61 1009.1
20260509033553 0 188 0.0 1.0 0.35 0.58 0.58 1009.2
20260509033049 0 196 2.0 2.0 0.26 0.54 0.54 1009.2
20260509032547 0 207 1.0 2.0 0.07 0.51 0.51 1009.1
20260509032044 0 183 1.0 1.0 0.05 0.50 0.50 1008.8
20260509031542 0 182 1.0 2.0 0.05 0.50 0.50 1009.1
20260509031039 0 190 1.0 2.0 0.07 0.49 0.49 1009.3
20260509030537 0 180 0.0 0.0 0.12 0.49 0.49 1009.0
20260509030033 0 193 0.0 0.0 0.12 0.48 0.48 1009.0
20260509025529 0 185 0.0 0.0 0.19 0.47 0.47 1009.4
20260509025025 0 197 0.0 0.0 0.12 0.46 0.46 1009.3
20260509024520 0 196 1.0 2.0 0.05 0.44 0.44 1009.5
20260509024018 0 184 0.0 0.0 0.05 0.44 0.44 1009.3
20260509023515 0 177 0.0 0.0 0.07 0.43 0.43 1009.2
20260509023012 0 181 0.0 1.0 0.12 0.43 0.43 1009.3
20260509022509 0 204 1.0 1.0 0.17 0.42 0.42 1009.3
20260509022006 0 145 0.0 1.0 0.31 0.41 0.41 1009.6
20260509021503 0 193 0.0 0.0 0.35 0.40 0.40 1009.6
20260509021000 0 209 3.0 5.0 0.28 0.37 0.37 1009.4
20260509020458 0 192 1.0 1.0 0.24 0.34 0.34 1009.4
20260509015955 0 217 4.0 5.0 0.19 0.32 0.32 1009.5
20260509015454 0 192 0.0 1.0 0.17 0.31 0.31 1009.4
20260509014950 0 184 1.0 1.0 0.12 0.29 0.29 1009.3
20260509014447 0 177 0.0 0.0 0.07 0.28 0.28 1009.3
20260509013943 0 195 0.0 1.0 0.05 0.27 0.27 1009.4
20260509013440 0 180 0.0 1.0 0.12 0.27 0.27 1009.3
20260509012936 0 181 1.0 1.0 0.07 0.26 0.26 1009.4
20260509012433 0 181 0.0 1.0 0.00 0.25 0.25 1009.3
20260509011930 0 192 1.0 2.0 0.07 0.25 0.25 1009.4
20260509011427 0 215 1.0 2.0 0.07 0.25 0.25 1009.2
20260509010925 0 211 1.0 1.0 0.05 0.24 0.24 1009.2
20260509010422 0 200 1.0 1.0 0.12 0.24 0.24 1009.2
20260509005919 0 194 0.0 0.0 0.12 0.23 0.23 1009.2
20260509005417 0 187 0.0 1.0 0.05 0.22 0.22 1009.2
20260509004917 0 194 1.0 1.0 0.00 0.21 0.21 1009.2
20260509004414 0 194 1.0 1.0 0.00 0.21 0.21 1008.9
20260509003912 0 175 0.0 0.0 0.07 0.21 0.21 1008.8
20260509003409 0 178 0.0 0.0 0.07 0.21 0.21 1008.9
20260509002906 0 180 0.0 0.0 0.00 0.20 0.20 1009.1
20260509002404 0 174 0.0 0.0 0.05 0.20 0.20 1009.0
20260509001901 0 174 0.0 0.0 0.05 0.20 0.20 1008.9
20260509001357 0 266 3.0 3.0 0.00 0.19 0.19 1009.2
20260509000854 0 161 1.0 1.0 0.07 0.19 0.19 1009.0
20260509000352 0 178 2.0 2.0 0.12 0.19 0.19 1009.1
20260508235848 0 202 0.0 1.0 0.12 0.18 0.18 1009.1
20260508235345 0 177 0.0 0.0 0.12 0.17 0.17 1009.3
20260508234842 0 170 0.0 1.0 0.05 0.16 0.16 1009.1
20260508234338 0 215 1.0 2.0 0.12 0.15 0.15 1008.8
20260508233837 0 184 1.0 1.0 0.19 0.15 0.15 1008.9
20260508233336 0 173 0.0 0.0 0.07 0.13 0.13 1009.2
20260508232832 0 179 0.0 0.0 0.07 0.12 0.12 1009.2
20260508232329 0 248 1.0 2.0 0.07 0.12 0.12 1009.2
20260508231828 0 32 0.0 0.0 0.05 0.11 0.11 1009.2
20260508231324 0 180 0.0 0.0 0.12 0.11 0.11 1009.3
20260508230820 0 169 0.0 0.0 0.12 0.10 0.10 1009.3
20260508230316 0 181 0.0 0.0 0.12 0.09 0.09 1009.3
20260508225815 0 193 0.0 1.0 0.12 0.08 0.08 1009.4
20260508225310 0 174 0.0 0.0 0.05 0.07 0.07 1009.4
20260508224809 0 206 0.0 0.0 0.00 0.06 0.06 1009.4
20260508224306 0 160 0.0 0.0 0.07 0.06 0.06 1009.0
20260508223803 0 175 0.0 0.0 0.07 0.06 0.06 1008.9
20260508223301 0 111 0.0 0.0 0.00 0.05 0.05 1009.2
20260508222758 0 213 0.0 0.0 0.05 0.05 0.05 1009.3
20260508222255 0 177 0.0 0.0 0.05 0.05 0.05 1009.5
20260508221752 0 171 0.0 0.0 0.05 0.05 0.05 1009.2
20260508221247 0 171 0.0 1.0 0.07 0.04 0.04 1009.3
20260508220743 0 183 1.0 2.0 0.12 0.04 0.04 1009.4
20260508220240 0 174 0.0 0.0 0.12 0.03 0.03 1009.2
20260508215737 0 178 0.0 0.0 0.07 0.02 0.02 1009.0
20260508215233 0 174 0.0 0.0 0.00 0.01 0.01 1009.0
20260508214731 0 186 0.0 0.0 0.00 0.01 0.01 1008.8
20260508214228 0 180 0.0 0.0 0.00 0.01 0.01 1008.7
20260508213724 0 177 0.0 0.0 0.00 0.01 0.01 1008.8
20260508213221 0 170 0.0 0.0 0.00 0.01 0.01 1008.7
20260508212717 0 175 0.0 0.0 0.00 0.01 0.01 1008.6
20260508212214 0 177 0.0 0.0 0.07 0.01 0.01 1008.6
20260508211709 0 172 0.0 0.0 0.07 0.01 0.01 1008.6
20260508211205 0 174 0.0 0.0 0.00 0.00 0.00 1008.7
20260508210703 0 173 1.0 2.0 0.00 0.00 0.00 1008.8
20260508210200 0 193 1.0 2.0 0.00 0.00 0.00 1008.7
20260508205657 0 195 1.0 1.0 0.00 0.00 0.00 1008.6
20260508205153 0 195 3.0 5.0 0.00 0.00 0.00 1008.6
20260508204649 0 221 3.0 5.0 0.00 0.00 0.00 1008.6
20260508204146 0 189 3.0 5.0 0.00 0.00 0.00 1008.6
20260508203642 0 219 2.0 3.0 0.00 0.00 0.00 1008.7
20260508203138 0 198 3.0 3.0 0.00 0.00 0.00 1008.6
20260508202634 0 237 4.0 5.0 0.00 0.00 0.00 1008.8
20260508202132 0 210 3.0 3.0 0.00 0.00 0.00 1008.6
20260508201628 0 161 3.0 5.0 0.00 0.00 0.00 1008.9
20260508201125 0 234 3.0 5.0 0.00 0.00 0.00 1008.8
20260508200622 0 204 3.0 3.0 0.00 0.00 0.00 1009.0
20260508200118 0 208 2.0 2.0 0.00 0.00 0.00 1009.2
20260508195614 0 206 1.0 2.0 0.00 0.00 0.00 1009.1
20260508195111 0 179 0.0 0.0 0.00 0.00 0.00 1009.2
20260508194608 0 205 2.0 2.0 0.00 0.00 0.00 1009.3
20260508194105 0 182 3.0 5.0 0.00 0.00 0.00 1009.3
20260508193602 0 186 1.0 2.0 0.00 0.00 0.00 1009.6
20260508193058 0 239 4.0 5.0 0.00 0.00 0.00 1009.2
20260508192555 0 193 2.0 2.0 0.00 0.00 0.00 1009.6
20260508192052 0 181 1.0 2.0 0.00 0.00 0.00 1009.4
20260508191549 0 214 4.0 5.0 0.00 0.00 0.00 1009.7
20260508191045 0 218 5.0 6.0 0.00 0.00 0.00 1009.7
20260508190543 0 229 3.0 3.0 0.00 0.00 0.00 1009.8
20260508190039 0 197 1.0 1.0 0.00 0.00 0.00 1009.8
20260508185536 0 212 5.0 8.0 0.00 0.00 0.00 1010.0
20260508185034 0 199 2.0 2.0 0.00 0.00 0.00 1010.1
20260508184531 0 247 4.0 5.0 0.00 0.00 0.00 1010.2
20260508184028 0 222 3.0 3.0 0.00 0.00 0.00 1010.3
20260508183525 0 209 2.0 2.0 0.00 0.00 0.00 1010.3
20260508183021 0 204 3.0 3.0 0.00 0.00 0.00 1010.2
20260508182517 0 211 3.0 3.0 0.00 0.00 0.00 1010.2
20260508182013 0 231 4.0 5.0 0.00 0.00 0.00 1010.3
20260508181509 0 212 5.0 6.0 0.00 0.00 0.00 1010.6
20260508181007 0 162 5.0 7.0 0.00 0.00 0.00 1010.6
20260508180503 0 200 4.0 6.0 0.00 0.00 0.00 1010.4
20260508175959 0 207 5.0 7.0 0.00 0.00 0.00 1010.5
20260508175456 0 219 5.0 6.0 0.00 0.00 0.00 1010.8
20260508174954 0 197 7.0 9.0 0.00 0.00 0.00 1010.7
20260508174451 0 222 3.0 3.0 0.00 0.00 0.00 1010.9
20260508173948 0 212 5.0 7.0 0.00 0.00 0.00 1010.7
20260508173445 0 220 3.0 5.0 0.00 0.00 0.00 1010.7
20260508172941 0 269 5.0 6.0 0.00 0.00 0.00 1010.9
20260508172438 0 191 6.0 7.0 0.00 0.00 0.00 1010.9
20260508171934 0 194 3.0 6.0 0.00 0.00 0.00 1010.9
20260508171431 0 241 7.0 7.0 0.00 0.00 0.00 1011.0
20260508170928 0 169 8.0 13.0 0.00 0.00 0.00 1011.3
20260508170425 0 254 6.0 7.0 0.00 0.00 0.00 1011.3
20260508165921 0 185 5.0 6.0 0.00 0.00 0.00 1011.3
20260508165420 0 233 7.0 9.0 0.00 0.00 0.00 1011.2
20260508164915 0 225 4.0 5.0 0.00 0.00 0.00 1011.7
20260508164413 0 226 3.0 5.0 0.00 0.00 0.00 1011.7
20260508163910 0 195 3.0 5.0 0.00 0.00 0.00 1011.6
20260508163408 0 194 4.0 6.0 0.00 0.00 0.00 1012.0
20260508162902 0 263 4.0 7.0 0.00 0.00 0.00 1011.9
20260508162401 0 236 7.0 9.0 0.00 0.00 0.00 1011.9
20260508161857 0 257 4.0 5.0 0.00 0.00 0.00 1012.2
20260508161355 0 235 4.0 6.0 0.00 0.00 0.00 1012.0
20260508160852 0 221 3.0 7.0 0.00 0.00 0.00 1012.2
20260508160350 0 229 2.0 3.0 0.00 0.00 0.00 1012.2
20260508155846 0 254 4.0 5.0 0.00 0.00 0.00 1012.3
20260508155344 0 236 4.0 5.0 0.00 0.00 0.00 1012.2
20260508154840 0 263 4.0 5.0 0.00 0.00 0.00 1012.2
20260508154338 0 239 8.0 10.0 0.00 0.00 0.00 1012.4
20260508153834 0 178 4.0 5.0 0.00 0.00 0.00 1012.2
20260508153332 0 246 5.0 7.0 0.00 0.00 0.00 1012.2
20260508152827 0 253 4.0 5.0 0.00 0.00 0.00 1012.4
20260508152324 0 207 3.0 5.0 0.00 0.00 0.00 1012.3
20260508151820 0 215 3.0 3.0 0.00 0.00 0.00 1012.3
20260508151318 0 166 5.0 7.0 0.00 0.00 0.00 1012.5
20260508150814 0 156 8.0 10.0 0.00 0.00 0.00 1012.3
20260508150311 0 238 5.0 10.0 0.00 0.00 0.00 1012.3
20260508145807 0 188 6.0 8.0 0.00 0.00 0.00 1012.5
20260508145306 0 197 3.0 3.0 0.00 0.00 0.00 1012.5
20260508144800 0 227 7.0 9.0 0.00 0.00 0.00 1012.6
20260508144258 0 200 7.0 10.0 0.00 0.00 0.00 1012.7
20260508143755 0 228 1.0 2.0 0.00 0.00 0.00 1012.7
20260508143252 0 204 3.0 3.0 0.00 0.00 0.00 1012.8
20260508142748 0 238 2.0 2.0 0.00 0.00 0.00 1012.8
20260508142246 0 227 4.0 5.0 0.00 0.00 0.00 1012.8
20260508141742 0 326 5.0 6.0 0.00 0.00 0.00 1012.7
20260508141239 0 250 5.0 6.0 0.00 0.00 0.00 1012.8
20260508140736 0 233 6.0 8.0 0.00 0.00 0.00 1012.9
20260508140233 0 201 5.0 5.0 0.00 0.00 0.00 1012.8
20260508135729 0 240 5.0 10.0 0.00 0.00 0.00 1013.1
20260508135225 0 203 1.0 2.0 0.00 0.00 0.00 1012.9
20260508134721 0 232 5.0 7.0 0.00 0.00 0.00 1012.9
20260508134219 0 175 3.0 5.0 0.00 0.00 0.00 1012.8
20260508133715 0 206 3.0 5.0 0.00 0.00 0.00 1013.1
20260508133213 0 235 4.0 6.0 0.00 0.00 0.00 1013.1
20260508132711 0 161 2.0 2.0 0.00 0.00 0.00 1013.2
20260508132208 0 206 5.0 7.0 0.00 0.00 0.00 1013.2
20260508131703 0 227 3.0 5.0 0.00 0.00 0.00 1013.2
20260508131200 0 233 3.0 3.0 0.00 0.00 0.00 1013.1
20260508130656 0 237 5.0 6.0 0.00 0.00 0.00 1013.0
20260508130154 0 186 7.0 9.0 0.00 0.00 0.00 1013.0
20260508125649 0 190 2.0 2.0 0.00 0.00 0.00 1012.9
20260508125146 0 237 5.0 6.0 0.00 0.00 0.00 1013.2
20260508124644 0 210 3.0 5.0 0.00 0.00 0.00 1013.0
20260508124141 0 183 4.0 6.0 0.00 0.00 0.00 1013.2
20260508123639 0 197 3.0 3.0 0.00 0.00 0.00 1012.9
20260508123137 0 167 4.0 7.0 0.00 0.00 0.00 1013.0
20260508122633 0 213 3.0 3.0 0.00 0.00 0.00 1013.1
20260508122130 0 268 5.0 6.0 0.00 0.00 0.00 1013.0
20260508121628 0 191 5.0 7.0 0.00 0.00 0.00 1012.8
20260508121126 0 213 4.0 5.0 0.00 0.00 0.00 1012.9
20260508120623 0 220 2.0 2.0 0.00 0.00 0.00 1013.1
20260508120121 0 263 3.0 5.0 0.00 0.00 0.00 1012.9
20260508115619 0 205 1.0 2.0 0.00 0.00 0.00 1013.1
20260508115115 0 181 3.0 3.0 0.00 0.00 0.00 1012.7
20260508114613 0 181 2.0 2.0 0.00 0.00 0.00 1012.7
20260508114108 0 201 3.0 5.0 0.00 0.00 0.00 1012.6
20260508113606 0 227 5.0 5.0 0.00 0.00 0.00 1012.6
20260508113104 0 219 2.0 3.0 0.00 0.00 0.00 1012.6
20260508112559 0 195 3.0 3.0 0.00 0.00 0.00 1012.6
20260508112056 0 179 1.0 2.0 0.00 0.00 0.00 1012.8
20260508111553 0 206 1.0 2.0 0.00 0.00 0.00 1012.6
20260508111050 0 209 3.0 3.0 0.00 0.00 0.00 1012.6
20260508110548 0 179 1.0 1.0 0.00 0.00 0.00 1012.5
20260508110044 0 198 1.0 1.0 0.00 0.00 0.00 1012.5
20260508105539 0 223 2.0 2.0 0.00 0.00 0.00 1012.7
20260508105037 0 195 1.0 1.0 0.00 0.00 0.00 1012.4
20260508104534 0 223 3.0 3.0 0.00 0.00 0.00 1012.6
20260508104030 0 218 2.0 2.0 0.00 0.00 0.00 1012.5
20260508103527 0 196 1.0 2.0 0.00 0.00 0.00 1012.5
20260508103025 0 179 1.0 1.0 0.00 0.00 0.00 1012.4
20260508102523 0 197 2.0 2.0 0.00 0.00 0.00 1012.5
20260508102020 0 207 2.0 3.0 0.00 0.00 0.00 1012.4
20260508101517 0 206 2.0 2.0 0.00 0.00 0.00 1012.5
20260508101014 0 202 2.0 2.0 0.00 0.00 0.00 1012.2
20260508100513 0 173 2.0 2.0 0.00 0.00 0.00 1012.2
20260508100009 0 215 3.0 3.0 0.00 0.00 0.00 1012.7
20260508095506 0 196 2.0 2.0 0.00 0.00 0.00 1012.4
20260508095003 0 210 2.0 2.0 0.00 0.00 0.00 1012.5
20260508094500 0 227 3.0 3.0 0.00 0.00 0.00 1012.4
20260508093956 0 187 1.0 1.0 0.00 0.00 0.00 1012.5
20260508093454 0 198 1.0 2.0 0.00 0.00 0.00 1012.6
20260508092952 0 179 0.0 0.0 0.00 0.00 0.00 1012.5
20260508092449 0 175 0.0 0.0 0.00 0.00 0.00 1012.6
20260508091948 0 183 0.0 1.0 0.00 0.00 0.00 1012.5
20260508091444 0 173 1.0 1.0 0.00 0.00 0.00 1012.5
20260508090941 0 179 0.0 1.0 0.00 0.00 0.00 1012.5
20260508090440 0 172 0.0 0.0 0.00 0.00 0.00 1012.7
20260508085935 0 176 0.0 0.0 0.00 0.00 0.00 1012.6
20260508085432 0 178 0.0 0.0 0.00 0.00 0.00 1012.9
20260508084929 0 205 0.0 0.0 0.00 0.00 0.00 1012.8
20260508084426 0 179 0.0 0.0 0.00 0.00 0.00 1012.8
20260508083924 0 192 0.0 0.0 0.00 0.00 0.00 1012.7
20260508083421 0 175 0.0 0.0 0.00 0.00 0.00 1012.8
20260508082921 0 175 0.0 0.0 0.00 0.00 0.00 1012.8
20260508082418 0 179 0.0 0.0 0.00 0.00 0.00 1012.9
20260508081916 0 179 1.0 1.0 0.00 0.00 0.00 1012.9
20260508081413 0 189 0.0 0.0 0.00 0.00 0.00 1012.7
20260508080909 0 243 2.0 2.0 0.00 0.00 0.00 1012.8
20260508080407 0 195 1.0 2.0 0.00 0.00 0.00 1012.8
20260508075903 0 186 0.0 1.0 0.00 0.00 0.00 1012.7
20260508075400 0 172 0.0 0.0 0.00 0.00 0.00 1012.8